Amsterdam, Netherlands

6:38 AM CET on December 10, 2019 (GMT +0100)
Schiphol

Weather History for EHAM - October, 2019

Change the Weather History Date:

Monday, October 14, 2019

  Actual Average Record
Temperature  
Mean Temperature 56 °F -  
Max Temperature 62 °F 52 °F 74 °F (2018)
Min Temperature 51 °F 42 °F 41 °F (2011)
Degree Days  
Heating Degree Days 8    
Growing Degree Days 6 (Base 50)    
Moisture  
Dew Point 54 °F    
Average Humidity 88    
Maximum Humidity 94    
Minimum Humidity 71    
Precipitation  
Precipitation 0.08 in - - ()
Sea Level Pressure  
Sea Level Pressure 29.81 in    
Wind  
Wind Speed 9 mph ()    
Max Wind Speed 16 mph    
Max Gust Speed 24 mph    
Visibility 8.1 miles    
Events Rain , Thunderstorm    
Averages and records for this station are not official NWS values.
T = Trace of Precipitation, MM = Missing Value Source: Averaged Metar Reports

Daily Weather History Graph

Daily Weather History Graph

Search for Another Location

Airport or City:

Astronomy

Oct. 14, 2019 Rise Set
Actual Time 8:03 AM CEST 6:49 PM CEST
Civil Twilight 7:29 AM CEST 7:23 PM CEST
Nautical Twilight 6:50 AM CEST 8:02 PM CEST
Astronomical Twilight 6:10 AM CEST 8:42 PM CEST
Moon 7:32 PM CEST (10/14) 8:15 AM CEST (10/14)
Length of Visible Light 11h 54m
Length of Day
10h 45m
Full, 100% of the Moon is Illuminated
Oct 14
Full
Oct 21
Last Quarter
Oct 28
New
Nov 4
First Quarter
Nov 12
Full

Hourly Weather History & Observations

Time (CEST) Temp. Dew Point Humidity Pressure Visibility Wind Dir Wind Speed Gust Speed Precip Events Conditions
12:00 AM 59 °F 53 °F 73% 29.83 in 12 mi WSW 15.7 mph - -   Partly Cloudy
12:25 AM 59.0 °F 51.8 °F 77% 29.83 in 6.2 mi WSW 13.8 mph - N/A   Partly Cloudy
12:55 AM 59.0 °F 51.8 °F 77% 29.83 in 6.2 mi WSW 15.0 mph - N/A   Partly Cloudy
1:25 AM 57.2 °F 50.0 °F 77% 29.86 in 6.2 mi WSW 12.7 mph - N/A   Partly Cloudy
1:55 AM 57.2 °F 50.0 °F 77% 29.86 in 6.2 mi WSW 10.4 mph - N/A   Partly Cloudy
2:00 AM 57 °F 50 °F 71% 29.88 in 15 mi WSW 11.2 mph - -   Partly Cloudy
2:25 AM 55.4 °F 50.0 °F 82% 29.86 in 6.2 mi WSW 11.5 mph - N/A   Partly Cloudy
2:55 AM 55.4 °F 50.0 °F 82% 29.89 in 6.2 mi WSW 9.2 mph - N/A   Partly Cloudy
3:00 AM 55 °F 50 °F 76% 29.89 in 18 mi WSW 8.9 mph - -   Partly Cloudy
3:25 AM 55.4 °F 50.0 °F 82% 29.89 in 6.2 mi WSW 9.2 mph - N/A   Partly Cloudy
3:55 AM 55.4 °F 50.0 °F 82% 29.89 in 6.2 mi WSW 8.1 mph - N/A   Partly Cloudy
4:25 AM 53.6 °F 50.0 °F 88% 29.86 in 6.2 mi WSW 4.6 mph - N/A   Partly Cloudy
4:55 AM 53.6 °F 50.0 °F 88% 29.89 in 6.2 mi SW 4.6 mph - N/A   Partly Cloudy
5:25 AM 53.6 °F 50.0 °F 88% 29.89 in 6.2 mi SSW 4.6 mph - N/A   Partly Cloudy
5:55 AM 53.6 °F 51.8 °F 94% 29.89 in 6.2 mi SSE 3.5 mph - N/A   Partly Cloudy
6:00 AM 53 °F 51 °F 90% 29.90 in 16 mi SSE 4.5 mph - -   Partly Cloudy
6:25 AM 53.6 °F 51.8 °F 94% 29.89 in 6.2 mi South 3.5 mph - N/A Rain Light Rain
6:55 AM 53.6 °F 51.8 °F 94% 29.89 in 6.2 mi South 4.6 mph - N/A   Partly Cloudy
7:25 AM 51.8 °F 50.0 °F 94% 29.89 in - SSE 3.5 mph - N/A   Clear
7:55 AM 53.6 °F 51.8 °F 94% 29.92 in - SSE 5.8 mph - N/A   Clear
8:25 AM 53.6 °F 51.8 °F 94% 29.89 in - SSE 4.6 mph - N/A   Clear
8:55 AM 53.6 °F 51.8 °F 94% 29.89 in - SE 3.5 mph - N/A   Clear
9:00 AM 54 °F 52 °F 90% 29.91 in 12 mi ESE 2.2 mph - -   Partly Cloudy
9:25 AM 53.6 °F 51.8 °F 94% 29.89 in - ESE 4.6 mph - N/A   Clear
9:55 AM 55.4 °F 53.6 °F 94% 29.92 in - SE 5.8 mph - N/A   Clear
10:25 AM 55.4 °F 53.6 °F 94% 29.89 in - ESE 4.6 mph - N/A   Clear
10:55 AM 55.4 °F 53.6 °F 94% 29.89 in - ENE 5.8 mph - N/A   Clear
11:00 AM 56 °F 53 °F 88% 29.91 in 11 mi ENE 6.7 mph - -   Partly Cloudy
11:25 AM 57.2 °F 53.6 °F 88% 29.89 in 6.2 mi ENE 8.1 mph - N/A   Partly Cloudy
11:55 AM 55.4 °F 53.6 °F 94% 29.89 in 5.0 mi East 10.4 mph - N/A Rain Light Rain Showers
12:00 PM 56 °F 53 °F 86% 29.90 in 10 mi NE 8.9 mph - - Rain Light Rain Showers
12:25 PM 57.2 °F 53.6 °F 88% 29.86 in 6.2 mi ENE 9.2 mph - N/A   Mostly Cloudy
12:55 PM 57.2 °F 53.6 °F 88% 29.86 in 6.2 mi ENE 9.2 mph - N/A Rain Light Rain Showers
1:00 PM 57 °F 54 °F 84% 29.88 in 8 mi NE 6.7 mph - - Rain Light Rain Showers
1:25 PM 57.2 °F 53.6 °F 88% 29.86 in 6.2 mi NE 10.4 mph - N/A   Mostly Cloudy
1:55 PM 57.2 °F 53.6 °F 88% 29.83 in 6.2 mi NE 9.2 mph - N/A   Mostly Cloudy
2:00 PM 57 °F 54 °F 84% 29.84 in 13 mi NE 11.2 mph - - Rain Rain
2:25 PM 59.0 °F 55.4 °F 88% 29.80 in 6.2 mi ENE 12.7 mph - N/A   Mostly Cloudy
2:55 PM 59.0 °F 55.4 °F 88% 29.80 in 6.2 mi ENE 13.8 mph - N/A   Partly Cloudy
3:00 PM 58 °F 54 °F 84% 29.81 in 17 mi ENE 13.4 mph - -   Partly Cloudy
3:25 PM 57.2 °F 53.6 °F 88% 29.80 in 6.2 mi ENE 15.0 mph - N/A   Partly Cloudy
3:55 PM 57.2 °F 53.6 °F 88% 29.77 in 6.2 mi ENE 16.1 mph - N/A   Partly Cloudy
4:00 PM 58 °F 54 °F 84% 29.78 in 14 mi ENE 15.7 mph - - Thunderstorm Light Thunderstorm
4:25 PM 57.2 °F 55.4 °F 94% 29.77 in 6.2 mi East 12.7 mph - N/A   Partly Cloudy
4:55 PM 59.0 °F 55.4 °F 88% 29.74 in 6.2 mi ENE 12.7 mph 24.2 mph N/A   Scattered Clouds
5:00 PM 58 °F 56 °F 90% 29.76 in 10 mi ENE 8.9 mph - -   Partly Cloudy
5:25 PM 59.0 °F 55.4 °F 88% 29.74 in 6.2 mi ENE 11.5 mph - N/A   Partly Cloudy
5:55 PM 59.0 °F 57.2 °F 94% 29.71 in 6.2 mi East 12.7 mph - N/A   Partly Cloudy
6:00 PM 58 °F 56 °F 92% 29.73 in 9 mi East 13.4 mph - -   Partly Cloudy
6:25 PM 59.0 °F 57.2 °F 94% 29.71 in 6.2 mi East 11.5 mph - N/A   Partly Cloudy
6:55 PM 59.0 °F 57.2 °F 94% 29.71 in - East 11.5 mph - N/A   Clear
7:00 PM 59 °F 57 °F 91% 29.73 in 8 mi East 8.9 mph - -   Partly Cloudy
7:25 PM 59.0 °F 57.2 °F 94% 29.71 in - East 10.4 mph - N/A   Clear
7:55 PM 59.0 °F 57.2 °F 94% 29.71 in - East 10.4 mph - N/A   Clear
8:00 PM 60 °F 58 °F 89% 29.71 in 7 mi East 8.9 mph - -   Partly Cloudy
8:25 PM 59.0 °F 57.2 °F 94% 29.71 in - East 8.1 mph - N/A   Clear
8:55 PM 60.8 °F 59.0 °F 94% 29.68 in - East 11.5 mph - N/A   Clear
9:00 PM 61 °F 58 °F 88% 29.69 in 8 mi East 11.2 mph - -   Partly Cloudy
9:25 PM 60.8 °F 59.0 °F 94% 29.68 in - ESE 9.2 mph - N/A   Clear
9:55 PM 60.8 °F 59.0 °F 94% 29.68 in - SE 9.2 mph - N/A   Clear
10:00 PM 61 °F 58 °F 88% 29.69 in 8 mi SE 8.9 mph - -   Partly Cloudy
10:25 PM 60.8 °F 59.0 °F 94% 29.65 in - ESE 9.2 mph - N/A   Clear
10:55 PM 62.6 °F 59.0 °F 88% 29.68 in 6.2 mi SE 10.4 mph - N/A Rain Light Rain Showers
11:00 PM 62 °F 59 °F 87% 29.68 in 10 mi SE 11.2 mph - - Rain Light Rain Showers
11:25 PM 62.6 °F 59.0 °F 88% 29.65 in 6.2 mi SE 10.4 mph - N/A   Partly Cloudy
11:55 PM 62.6 °F 59.0 °F 88% 29.65 in - SE 10.4 mph - N/A   Clear